contact:dominique.lefevre@mio.osupytheas.fr, maurice.libes@osupytheas.fr, didier.mallarino@osupytheas.fr
Project:EMSO http://www.emso-fr.org/EMSO-France
Depth: 2436.0 m
Title:EMSO Ligure Ouest : Data MII capteur MICROCAT
DateTime_Computer,Latitude,Longitude,Temperature,Conductivity,Pressure,DateTime_Instrument
DateTime_Computer,Latitude,Longitude,degC,S m-1,dbar,DateTime_Instrument
2020-11-13T00:02:41Z,42.805,6.029,13.2994,4.60021,2470.03,2020-11-13T02:03:37Z
2020-11-13T00:05:44Z,42.805,6.029,13.3006,4.60033,2470.063,2020-11-13T02:06:40Z
2020-11-13T00:08:47Z,42.805,6.029,13.3004,4.60034,2470.063,2020-11-13T02:09:43Z
2020-11-13T00:11:50Z,42.805,6.029,13.2996,4.60046,2470.04,2020-11-13T02:12:47Z
2020-11-13T00:14:53Z,42.805,6.029,13.3006,4.60042,2470.063,2020-11-13T02:15:50Z
2020-11-13T00:17:57Z,42.805,6.029,13.3002,4.60044,2470.053,2020-11-13T02:18:53Z
2020-11-13T00:21:00Z,42.805,6.029,13.3002,4.60051,2470.077,2020-11-13T02:21:56Z
2020-11-13T00:24:03Z,42.805,6.029,13.3004,4.60032,2470.077,2020-11-13T02:24:59Z
2020-11-13T00:27:06Z,42.805,6.029,13.2993,4.60037,2470.053,2020-11-13T02:28:02Z
2020-11-13T00:30:09Z,42.805,6.029,13.3002,4.60046,2470.04,2020-11-13T02:31:05Z
2020-11-13T00:33:12Z,42.805,6.029,13.3000,4.60021,2470.077,2020-11-13T02:34:08Z
2020-11-13T00:36:15Z,42.805,6.029,13.2992,4.60035,2470.04,2020-11-13T02:37:12Z
2020-11-13T00:39:18Z,42.805,6.029,13.2989,4.60019,2470.1,2020-11-13T02:40:15Z
2020-11-13T00:42:21Z,42.805,6.029,13.2993,4.60022,2470.063,2020-11-13T02:43:18Z
2020-11-13T00:45:25Z,42.805,6.029,13.2996,4.60076,2470.077,2020-11-13T02:46:21Z
2020-11-13T00:48:28Z,42.805,6.029,13.3002,4.60027,2470.077,2020-11-13T02:49:24Z
2020-11-13T00:51:31Z,42.805,6.029,13.2997,4.60031,2470.04,2020-11-13T02:52:27Z
2020-11-13T00:54:34Z,42.805,6.029,13.2990,4.60041,2470.04,2020-11-13T02:55:30Z
2020-11-13T00:57:37Z,42.805,6.029,13.2988,4.60017,2470.063,2020-11-13T02:58:33Z
2020-11-13T01:00:40Z,42.805,6.029,13.2991,4.60011,2470.087,2020-11-13T03:01:37Z
2020-11-13T01:03:43Z,42.805,6.029,13.2995,4.60024,2470.077,2020-11-13T03:04:40Z
2020-11-13T01:06:46Z,42.805,6.029,13.2993,4.60014,2470.1,2020-11-13T03:07:43Z
2020-11-13T01:09:50Z,42.805,6.029,13.2989,4.60029,2470.04,2020-11-13T03:10:46Z
2020-11-13T01:12:53Z,42.805,6.029,13.2986,4.60008,2470.1,2020-11-13T03:13:49Z
2020-11-13T01:15:56Z,42.805,6.029,13.2996,4.60009,2470.077,2020-11-13T03:16:52Z
2020-11-13T01:18:59Z,42.805,6.029,13.2990,4.60001,2470.087,2020-11-13T03:19:55Z
2020-11-13T01:22:02Z,42.805,6.029,13.2991,4.60000,2470.087,2020-11-13T03:22:58Z
2020-11-13T01:25:05Z,42.805,6.029,13.2997,4.60013,2470.1,2020-11-13T03:26:02Z
2020-11-13T01:28:08Z,42.805,6.029,13.2991,4.60024,2470.087,2020-11-13T03:29:05Z
2020-11-13T01:31:11Z,42.805,6.029,13.2992,4.60012,2470.087,2020-11-13T03:32:08Z
2020-11-13T01:34:15Z,42.805,6.029,13.2990,4.60000,2470.147,2020-11-13T03:35:11Z
2020-11-13T01:37:18Z,42.805,6.029,13.2990,4.59999,2470.087,2020-11-13T03:38:14Z
2020-11-13T01:40:21Z,42.805,6.029,13.2984,4.60009,2470.063,2020-11-13T03:41:17Z
2020-11-13T01:43:24Z,42.805,6.029,13.2985,4.60003,2470.1,2020-11-13T03:44:20Z
2020-11-13T01:46:27Z,42.805,6.029,13.2991,4.60009,2470.124,2020-11-13T03:47:23Z
2020-11-13T01:49:30Z,42.805,6.029,13.2991,4.60013,2470.11,2020-11-13T03:50:27Z
2020-11-13T01:52:33Z,42.805,6.029,13.2991,4.60019,2470.11,2020-11-13T03:53:30Z
2020-11-13T01:55:36Z,42.805,6.029,13.2996,4.60011,2470.077,2020-11-13T03:56:33Z
2020-11-13T01:58:40Z,42.805,6.029,13.2983,4.60001,2470.133,2020-11-13T03:59:36Z
2020-11-13T02:01:43Z,42.805,6.029,13.2988,4.60007,2470.124,2020-11-13T04:02:39Z
2020-11-13T02:04:46Z,42.805,6.029,13.2998,4.60019,2470.124,2020-11-13T04:05:42Z
2020-11-13T02:07:49Z,42.805,6.029,13.2990,4.60011,2470.124,2020-11-13T04:08:45Z
2020-11-13T02:10:52Z,42.805,6.029,13.2993,4.60007,2470.171,2020-11-13T04:11:48Z
2020-11-13T02:13:55Z,42.805,6.029,13.2986,4.60003,2470.133,2020-11-13T04:14:52Z
2020-11-13T02:16:58Z,42.805,6.029,13.2988,4.60009,2470.133,2020-11-13T04:17:55Z
2020-11-13T02:20:01Z,42.805,6.029,13.2985,4.60010,2470.11,2020-11-13T04:20:58Z
2020-11-13T02:23:05Z,42.805,6.029,13.2990,4.60001,2470.133,2020-11-13T04:24:01Z
2020-11-13T02:26:08Z,42.805,6.029,13.2984,4.60001,2470.133,2020-11-13T04:27:04Z
2020-11-13T02:29:11Z,42.805,6.029,13.2990,4.60003,2470.18,2020-11-13T04:30:07Z
2020-11-13T02:32:14Z,42.805,6.029,13.2985,4.60022,2470.147,2020-11-13T04:33:10Z
2020-11-13T02:35:17Z,42.805,6.029,13.3000,4.60006,2470.156,2020-11-13T04:36:13Z
2020-11-13T02:38:20Z,42.805,6.029,13.2990,4.60016,2470.156,2020-11-13T04:39:16Z
2020-11-13T02:41:23Z,42.805,6.029,13.2986,4.60009,2470.156,2020-11-13T04:42:20Z
2020-11-13T02:44:26Z,42.805,6.029,13.2986,4.60006,2470.133,2020-11-13T04:45:23Z
2020-11-13T02:47:30Z,42.805,6.029,13.2988,4.60000,2470.156,2020-11-13T04:48:26Z
2020-11-13T02:50:33Z,42.805,6.029,13.2989,4.60009,2470.156,2020-11-13T04:51:29Z
2020-11-13T02:53:36Z,42.805,6.029,13.2988,4.60006,2470.156,2020-11-13T04:54:32Z
2020-11-13T02:56:39Z,42.805,6.029,13.2992,4.60009,2470.156,2020-11-13T04:57:35Z
2020-11-13T02:59:42Z,42.805,6.029,13.2990,4.60001,2470.156,2020-11-13T05:00:38Z
2020-11-13T03:02:45Z,42.805,6.029,13.2987,4.60006,2470.203,2020-11-13T05:03:42Z
2020-11-13T03:05:48Z,42.805,6.029,13.2995,4.60014,2470.203,2020-11-13T05:06:45Z
2020-11-13T03:08:51Z,42.805,6.029,13.2990,4.60019,2470.156,2020-11-13T05:09:48Z
2020-11-13T03:11:55Z,42.805,6.029,13.2998,4.60029,2470.18,2020-11-13T05:12:51Z
2020-11-13T03:14:58Z,42.805,6.029,13.3005,4.60027,2470.194,2020-11-13T05:15:54Z
2020-11-13T03:18:01Z,42.805,6.029,13.2990,4.60016,2470.194,2020-11-13T05:18:57Z
2020-11-13T03:21:04Z,42.805,6.029,13.2999,4.60022,2470.217,2020-11-13T05:22:00Z
2020-11-13T03:24:07Z,42.805,6.029,13.2991,4.60010,2470.203,2020-11-13T05:25:03Z
2020-11-13T03:27:10Z,42.805,6.029,13.2990,4.60009,2470.18,2020-11-13T05:28:06Z
2020-11-13T03:30:13Z,42.805,6.029,13.2988,4.60023,2470.227,2020-11-13T05:31:10Z
2020-11-13T03:33:16Z,42.805,6.029,13.2996,4.60031,2470.217,2020-11-13T05:34:13Z
2020-11-13T03:36:19Z,42.805,6.029,13.2998,4.60022,2470.217,2020-11-13T05:37:16Z
2020-11-13T03:39:23Z,42.805,6.029,13.2996,4.60010,2470.227,2020-11-13T05:40:19Z
2020-11-13T03:42:26Z,42.805,6.029,13.2992,4.60011,2470.24,2020-11-13T05:43:22Z
2020-11-13T03:45:29Z,42.805,6.029,13.2992,4.60004,2470.227,2020-11-13T05:46:25Z
2020-11-13T03:48:32Z,42.805,6.029,13.2991,4.60008,2470.264,2020-11-13T05:49:28Z
2020-11-13T03:51:35Z,42.805,6.029,13.2998,4.60017,2470.203,2020-11-13T05:52:31Z
2020-11-13T03:54:38Z,42.805,6.029,13.2998,4.60036,2470.227,2020-11-13T05:55:35Z
2020-11-13T03:57:41Z,42.805,6.029,13.2992,4.60014,2470.227,2020-11-13T05:58:38Z
2020-11-13T04:00:44Z,42.805,6.029,13.2991,4.60005,2470.25,2020-11-13T06:01:41Z
2020-11-13T04:03:48Z,42.805,6.029,13.2995,4.60033,2470.227,2020-11-13T06:04:44Z
2020-11-13T04:06:51Z,42.805,6.029,13.2986,4.59997,2470.264,2020-11-13T06:07:47Z
2020-11-13T04:09:54Z,42.805,6.029,13.2988,4.60034,2470.264,2020-11-13T06:10:50Z
2020-11-13T04:12:57Z,42.805,6.029,13.2996,4.60021,2470.264,2020-11-13T06:13:53Z
2020-11-13T04:16:00Z,42.805,6.029,13.3019,4.60018,2470.273,2020-11-13T06:16:56Z
2020-11-13T04:19:03Z,42.805,6.029,13.2996,4.60028,2470.227,2020-11-13T06:20:00Z
2020-11-13T04:22:06Z,42.805,6.029,13.3009,4.60018,2470.273,2020-11-13T06:23:03Z
2020-11-13T04:25:09Z,42.805,6.029,13.2996,4.60029,2470.25,2020-11-13T06:26:06Z
2020-11-13T04:28:13Z,42.805,6.029,13.3000,4.60038,2470.287,2020-11-13T06:29:09Z
2020-11-13T04:31:16Z,42.805,6.029,13.3007,4.60033,2470.264,2020-11-13T06:32:12Z
2020-11-13T04:34:19Z,42.805,6.029,13.3005,4.60030,2470.25,2020-11-13T06:35:15Z
2020-11-13T04:37:22Z,42.805,6.029,13.3005,4.60033,2470.264,2020-11-13T06:38:18Z
2020-11-13T04:40:25Z,42.805,6.029,13.2996,4.60045,2470.287,2020-11-13T06:41:21Z
2020-11-13T04:43:28Z,42.805,6.029,13.3004,4.60043,2470.25,2020-11-13T06:44:25Z
2020-11-13T04:46:31Z,42.805,6.029,13.2996,4.60021,2470.31,2020-11-13T06:47:28Z
2020-11-13T04:49:34Z,42.805,6.029,13.3005,4.60024,2470.273,2020-11-13T06:50:31Z
2020-11-13T04:52:38Z,42.805,6.029,13.3007,4.60044,2470.273,2020-11-13T06:53:34Z
2020-11-13T04:55:41Z,42.805,6.029,13.3026,4.60019,2470.264,2020-11-13T06:56:37Z
2020-11-13T04:58:44Z,42.805,6.029,13.3014,4.60033,2470.287,2020-11-13T06:59:40Z
2020-11-13T05:01:47Z,42.805,6.029,13.3004,4.60044,2470.287,2020-11-13T07:02:43Z
2020-11-13T05:04:50Z,42.805,6.029,13.3021,4.60039,2470.297,2020-11-13T07:05:46Z
2020-11-13T05:07:53Z,42.805,6.029,13.3014,4.60049,2470.264,2020-11-13T07:08:50Z
2020-11-13T05:10:56Z,42.805,6.029,13.3019,4.60044,2470.31,2020-11-13T07:11:53Z
2020-11-13T05:13:59Z,42.805,6.029,13.3006,4.60055,2470.287,2020-11-13T07:14:56Z
2020-11-13T05:17:03Z,42.805,6.029,13.3006,4.60077,2470.273,2020-11-13T07:17:59Z
2020-11-13T05:20:06Z,42.805,6.029,13.3010,4.60054,2470.31,2020-11-13T07:21:02Z
2020-11-13T05:23:09Z,42.805,6.029,13.3029,4.60049,2470.25,2020-11-13T07:24:05Z
2020-11-13T05:26:12Z,42.805,6.029,13.3011,4.60031,2470.273,2020-11-13T07:27:08Z
2020-11-13T05:29:15Z,42.805,6.029,13.3004,4.60046,2470.264,2020-11-13T07:30:11Z
2020-11-13T05:32:18Z,42.805,6.029,13.3008,4.60034,2470.287,2020-11-13T07:33:15Z
2020-11-13T05:35:21Z,42.805,6.029,13.3026,4.60022,2470.31,2020-11-13T07:36:18Z
2020-11-13T05:38:24Z,42.805,6.029,13.3004,4.60038,2470.25,2020-11-13T07:39:21Z
2020-11-13T05:41:28Z,42.805,6.029,13.3008,4.60049,2470.273,2020-11-13T07:42:24Z
2020-11-13T05:44:31Z,42.805,6.029,13.3006,4.60044,2470.273,2020-11-13T07:45:27Z
2020-11-13T05:47:34Z,42.805,6.029,13.3014,4.60058,2470.297,2020-11-13T07:48:30Z
2020-11-13T05:50:37Z,42.805,6.029,13.3009,4.60046,2470.297,2020-11-13T07:51:33Z
2020-11-13T05:53:40Z,42.805,6.029,13.3028,4.60043,2470.236,2020-11-13T07:54:36Z
2020-11-13T05:56:43Z,42.805,6.029,13.3010,4.60078,2470.273,2020-11-13T07:57:39Z
2020-11-13T05:59:46Z,42.805,6.029,13.3027,4.60072,2470.264,2020-11-13T08:00:43Z
2020-11-13T06:02:49Z,42.805,6.029,13.3029,4.60010,2470.273,2020-11-13T08:03:46Z
2020-11-13T06:05:52Z,42.805,6.029,13.2990,4.60009,2470.273,2020-11-13T08:06:49Z
2020-11-13T06:08:56Z,42.805,6.029,13.3004,4.60021,2470.297,2020-11-13T08:09:52Z
2020-11-13T06:11:59Z,42.805,6.029,13.3018,4.60039,2470.264,2020-11-13T08:12:55Z
2020-11-13T06:15:02Z,42.805,6.029,13.3015,4.59991,2470.264,2020-11-13T08:15:58Z
2020-11-13T06:18:05Z,42.805,6.029,13.2984,4.60017,2470.273,2020-11-13T08:19:01Z
2020-11-13T06:21:08Z,42.805,6.029,13.2998,4.60035,2470.264,2020-11-13T08:22:04Z
2020-11-13T06:24:11Z,42.805,6.029,13.2993,4.60028,2470.273,2020-11-13T08:25:08Z
2020-11-13T06:27:14Z,42.805,6.029,13.3011,4.60023,2470.287,2020-11-13T08:28:11Z
2020-11-13T06:30:17Z,42.805,6.029,13.2994,4.60028,2470.273,2020-11-13T08:31:14Z
2020-11-13T06:33:21Z,42.805,6.029,13.3012,4.60037,2470.25,2020-11-13T08:34:17Z
2020-11-13T06:36:24Z,42.805,6.029,13.3031,4.60017,2470.264,2020-11-13T08:37:20Z
2020-11-13T06:39:27Z,42.805,6.029,13.3031,4.60011,2470.273,2020-11-13T08:40:23Z
2020-11-13T06:42:30Z,42.805,6.029,13.3011,4.60039,2470.287,2020-11-13T08:43:26Z
2020-11-13T06:45:33Z,42.805,6.029,13.3021,4.60087,2470.273,2020-11-13T08:46:29Z
2020-11-13T06:48:36Z,42.805,6.029,13.3031,4.60044,2470.264,2020-11-13T08:49:33Z
2020-11-13T06:51:39Z,42.805,6.029,13.3001,4.60031,2470.227,2020-11-13T08:52:36Z
2020-11-13T06:54:42Z,42.805,6.029,13.3032,4.60036,2470.25,2020-11-13T08:55:39Z
2020-11-13T06:57:46Z,42.805,6.029,13.3030,4.60059,2470.264,2020-11-13T08:58:42Z
2020-11-13T07:00:49Z,42.805,6.029,13.3025,4.60040,2470.264,2020-11-13T09:01:45Z
2020-11-13T07:03:52Z,42.805,6.029,13.3013,4.60009,2470.264,2020-11-13T09:04:48Z
2020-11-13T07:06:55Z,42.805,6.029,13.3036,4.60016,2470.264,2020-11-13T09:07:51Z
2020-11-13T07:09:58Z,42.805,6.029,13.3029,4.60023,2470.264,2020-11-13T09:10:54Z
2020-11-13T07:13:01Z,42.805,6.029,13.3024,4.60014,2470.24,2020-11-13T09:13:58Z
2020-11-13T07:16:04Z,42.805,6.029,13.2996,4.60051,2470.217,2020-11-13T09:17:01Z
2020-11-13T07:19:07Z,42.805,6.029,13.3034,4.60052,2470.203,2020-11-13T09:20:04Z
2020-11-13T07:22:11Z,42.805,6.029,13.2996,4.60040,2470.24,2020-11-13T09:23:07Z
2020-11-13T07:25:14Z,42.805,6.029,13.3058,4.60031,2470.264,2020-11-13T09:26:10Z
2020-11-13T07:28:17Z,42.805,6.029,13.3037,4.60039,2470.24,2020-11-13T09:29:13Z
2020-11-13T07:31:20Z,42.805,6.029,13.3020,4.60034,2470.227,2020-11-13T09:32:16Z
2020-11-13T07:34:23Z,42.805,6.029,13.3019,4.60062,2470.24,2020-11-13T09:35:19Z
2020-11-13T07:37:26Z,42.805,6.029,13.3023,4.60022,2470.227,2020-11-13T09:38:22Z
2020-11-13T07:40:29Z,42.805,6.029,13.3026,4.60014,2470.24,2020-11-13T09:41:26Z
2020-11-13T07:43:32Z,42.805,6.029,13.3027,4.60046,2470.217,2020-11-13T09:44:29Z
2020-11-13T07:46:35Z,42.805,6.029,13.3024,4.60051,2470.24,2020-11-13T09:47:32Z
2020-11-13T07:49:39Z,42.805,6.029,13.3009,4.60033,2470.194,2020-11-13T09:50:35Z
2020-11-13T07:52:42Z,42.805,6.029,13.3001,4.60006,2470.25,2020-11-13T09:53:38Z
2020-11-13T07:55:45Z,42.805,6.029,13.3031,4.60025,2470.227,2020-11-13T09:56:41Z
2020-11-13T07:58:48Z,42.805,6.029,13.3021,4.60032,2470.217,2020-11-13T09:59:44Z
2020-11-13T08:01:51Z,42.805,6.029,13.3017,4.60046,2470.203,2020-11-13T10:02:47Z
2020-11-13T08:04:54Z,42.805,6.029,13.3026,4.60001,2470.194,2020-11-13T10:05:51Z
2020-11-13T08:07:57Z,42.805,6.029,13.3020,4.60016,2470.203,2020-11-13T10:08:54Z
2020-11-13T08:11:00Z,42.805,6.029,13.3009,4.59999,2470.217,2020-11-13T10:11:57Z
2020-11-13T08:14:04Z,42.805,6.029,13.3012,4.60017,2470.194,2020-11-13T10:15:00Z
2020-11-13T08:17:07Z,42.805,6.029,13.3026,4.60016,2470.24,2020-11-13T10:18:03Z
2020-11-13T08:20:10Z,42.805,6.029,13.3000,4.60070,2470.203,2020-11-13T10:21:06Z
2020-11-13T08:23:13Z,42.805,6.029,13.3010,4.60046,2470.24,2020-11-13T10:24:09Z
2020-11-13T08:26:16Z,42.805,6.029,13.3014,4.60033,2470.217,2020-11-13T10:27:12Z
2020-11-13T08:29:19Z,42.805,6.029,13.3011,4.60025,2470.194,2020-11-13T10:30:16Z
2020-11-13T08:32:22Z,42.805,6.029,13.3031,4.60032,2470.24,2020-11-13T10:33:19Z
2020-11-13T08:35:25Z,42.805,6.029,13.3021,4.60050,2470.217,2020-11-13T10:36:22Z
2020-11-13T08:38:29Z,42.805,6.029,13.3029,4.60028,2470.203,2020-11-13T10:39:25Z
2020-11-13T08:41:32Z,42.805,6.029,13.3037,4.60022,2470.217,2020-11-13T10:42:28Z
2020-11-13T08:44:35Z,42.805,6.029,13.3008,4.60008,2470.203,2020-11-13T10:45:31Z
2020-11-13T08:47:38Z,42.805,6.029,13.3005,4.60049,2470.217,2020-11-13T10:48:34Z
2020-11-13T08:50:41Z,42.805,6.029,13.3007,4.60050,2470.194,2020-11-13T10:51:37Z
2020-11-13T08:53:44Z,42.805,6.029,13.3012,4.60057,2470.217,2020-11-13T10:54:41Z
2020-11-13T08:56:47Z,42.805,6.029,13.3013,4.60041,2470.194,2020-11-13T10:57:44Z
2020-11-13T08:59:51Z,42.805,6.029,13.3033,4.60047,2470.203,2020-11-13T11:00:47Z
2020-11-13T09:02:54Z,42.805,6.029,13.3001,4.60019,2470.194,2020-11-13T11:03:50Z
2020-11-13T09:05:57Z,42.805,6.029,13.2996,4.60011,2470.171,2020-11-13T11:06:53Z
2020-11-13T09:09:00Z,42.805,6.029,13.3009,4.60028,2470.217,2020-11-13T11:09:56Z
2020-11-13T09:12:03Z,42.805,6.029,13.3022,4.60041,2470.18,2020-11-13T11:12:59Z
2020-11-13T09:15:06Z,42.805,6.029,13.3009,4.60029,2470.156,2020-11-13T11:16:03Z
2020-11-13T09:18:09Z,42.805,6.029,13.2998,4.60079,2470.217,2020-11-13T11:19:06Z
2020-11-13T09:21:12Z,42.805,6.029,13.3014,4.60049,2470.171,2020-11-13T11:22:09Z
2020-11-13T09:24:16Z,42.805,6.029,13.3022,4.60044,2470.194,2020-11-13T11:25:12Z
2020-11-13T09:27:19Z,42.805,6.029,13.3024,4.60008,2470.18,2020-11-13T11:28:15Z
2020-11-13T09:30:22Z,42.805,6.029,13.3008,4.60027,2470.156,2020-11-13T11:31:18Z
2020-11-13T09:33:25Z,42.805,6.029,13.3036,4.60077,2470.171,2020-11-13T11:34:21Z
2020-11-13T09:36:28Z,42.805,6.029,13.3036,4.60039,2470.18,2020-11-13T11:37:24Z
2020-11-13T09:39:31Z,42.805,6.029,13.3043,4.60032,2470.194,2020-11-13T11:40:28Z
2020-11-13T09:42:34Z,42.805,6.029,13.3020,4.60035,2470.194,2020-11-13T11:43:31Z
2020-11-13T09:45:37Z,42.805,6.029,13.3034,4.60032,2470.11,2020-11-13T11:46:34Z
2020-11-13T09:48:41Z,42.805,6.029,13.2999,4.60050,2470.171,2020-11-13T11:49:37Z
2020-11-13T09:51:44Z,42.805,6.029,13.3015,4.60054,2470.194,2020-11-13T11:52:40Z
2020-11-13T09:54:47Z,42.805,6.029,13.3024,4.60026,2470.156,2020-11-13T11:55:43Z
2020-11-13T09:57:50Z,42.805,6.029,13.3029,4.60029,2470.156,2020-11-13T11:58:46Z
2020-11-13T10:00:53Z,42.805,6.029,13.3037,4.60042,2470.133,2020-11-13T12:01:49Z
2020-11-13T10:03:56Z,42.805,6.029,13.3046,4.60034,2470.171,2020-11-13T12:04:53Z
2020-11-13T10:06:59Z,42.805,6.029,13.2992,4.60046,2470.133,2020-11-13T12:07:56Z
2020-11-13T10:10:02Z,42.805,6.029,13.3000,4.60049,2470.156,2020-11-13T12:10:59Z
2020-11-13T10:13:06Z,42.805,6.029,13.3032,4.60042,2470.156,2020-11-13T12:14:02Z
2020-11-13T10:16:09Z,42.805,6.029,13.3030,4.60087,2470.156,2020-11-13T12:17:05Z
2020-11-13T10:19:12Z,42.805,6.029,13.3038,4.60077,2470.147,2020-11-13T12:20:08Z
2020-11-13T10:22:15Z,42.805,6.029,13.3040,4.60079,2470.156,2020-11-13T12:23:11Z
2020-11-13T10:25:18Z,42.805,6.029,13.3051,4.60081,2470.171,2020-11-13T12:26:14Z
2020-11-13T10:28:21Z,42.805,6.029,13.3061,4.60057,2470.147,2020-11-13T12:29:18Z
2020-11-13T10:31:24Z,42.805,6.029,13.3051,4.60046,2470.147,2020-11-13T12:32:21Z
2020-11-13T10:34:27Z,42.805,6.029,13.3024,4.60038,2470.133,2020-11-13T12:35:24Z
2020-11-13T10:37:31Z,42.805,6.029,13.3014,4.60022,2470.171,2020-11-13T12:38:27Z
2020-11-13T10:40:34Z,42.805,6.029,13.3024,4.60062,2470.133,2020-11-13T12:41:30Z
2020-11-13T10:43:37Z,42.805,6.029,13.3009,4.60058,2470.147,2020-11-13T12:44:33Z
2020-11-13T10:46:40Z,42.805,6.029,13.3011,4.60060,2470.156,2020-11-13T12:47:36Z
2020-11-13T10:49:43Z,42.805,6.029,13.3025,4.60067,2470.156,2020-11-13T12:50:39Z
2020-11-13T10:52:46Z,42.805,6.029,13.3034,4.60059,2470.11,2020-11-13T12:53:43Z
2020-11-13T10:55:49Z,42.805,6.029,13.3021,4.60080,2470.124,2020-11-13T12:56:46Z
2020-11-13T10:58:53Z,42.805,6.029,13.3018,4.60074,2470.156,2020-11-13T12:59:49Z
2020-11-13T11:01:56Z,42.805,6.029,13.3031,4.60052,2470.11,2020-11-13T13:02:52Z
2020-11-13T11:04:59Z,42.805,6.029,13.3023,4.60058,2470.11,2020-11-13T13:05:55Z
2020-11-13T11:08:02Z,42.805,6.029,13.3024,4.60059,2470.087,2020-11-13T13:08:58Z
2020-11-13T11:11:05Z,42.805,6.029,13.3034,4.60070,2470.147,2020-11-13T13:12:01Z
2020-11-13T11:14:08Z,42.805,6.029,13.3041,4.60062,2470.1,2020-11-13T13:15:04Z
2020-11-13T11:17:11Z,42.805,6.029,13.3039,4.60046,2470.133,2020-11-13T13:18:08Z
2020-11-13T11:20:14Z,42.805,6.029,13.3046,4.60035,2470.133,2020-11-13T13:21:11Z
2020-11-13T11:23:18Z,42.805,6.029,13.3047,4.60069,2470.147,2020-11-13T13:24:14Z
2020-11-13T11:26:21Z,42.805,6.029,13.3030,4.60031,2470.063,2020-11-13T13:27:17Z
2020-11-13T11:29:24Z,42.805,6.029,13.2991,4.60063,2470.147,2020-11-13T13:30:20Z
2020-11-13T11:32:27Z,42.805,6.029,13.2998,4.60042,2470.1,2020-11-13T13:33:23Z
2020-11-13T11:35:30Z,42.805,6.029,13.3001,4.60021,2470.11,2020-11-13T13:36:26Z
2020-11-13T11:38:33Z,42.805,6.029,13.3004,4.60028,2470.11,2020-11-13T13:39:30Z
2020-11-13T11:41:36Z,42.805,6.029,13.3016,4.60049,2470.124,2020-11-13T13:42:33Z
2020-11-13T11:44:39Z,42.805,6.029,13.3004,4.60028,2470.087,2020-11-13T13:45:36Z
2020-11-13T11:47:43Z,42.805,6.029,13.3019,4.60035,2470.11,2020-11-13T13:48:39Z
2020-11-13T11:50:46Z,42.805,6.029,13.3004,4.60046,2470.1,2020-11-13T13:51:42Z
2020-11-13T11:53:49Z,42.805,6.029,13.3009,4.60042,2470.124,2020-11-13T13:54:45Z
2020-11-13T11:56:52Z,42.805,6.029,13.3015,4.60024,2470.124,2020-11-13T13:57:48Z
2020-11-13T11:59:55Z,42.805,6.029,13.2997,4.60068,2470.1,2020-11-13T14:00:51Z
2020-11-13T12:02:58Z,42.805,6.029,13.3026,4.60064,2470.087,2020-11-13T14:03:55Z
2020-11-13T12:06:01Z,42.805,6.029,13.3022,4.60036,2470.133,2020-11-13T14:06:58Z
2020-11-13T12:09:04Z,42.805,6.029,13.3006,4.60052,2470.124,2020-11-13T14:10:01Z
2020-11-13T12:12:08Z,42.805,6.029,13.2993,4.60080,2470.1,2020-11-13T14:13:04Z
2020-11-13T12:15:11Z,42.805,6.029,13.3013,4.60070,2470.124,2020-11-13T14:16:07Z
2020-11-13T12:18:14Z,42.805,6.029,13.3010,4.60057,2470.124,2020-11-13T14:19:10Z
2020-11-13T12:21:17Z,42.805,6.029,13.3016,4.60021,2470.077,2020-11-13T14:22:13Z
2020-11-13T12:24:20Z,42.805,6.029,13.3015,4.60056,2470.1,2020-11-13T14:25:16Z
2020-11-13T12:27:23Z,42.805,6.029,13.3002,4.60046,2470.124,2020-11-13T14:28:20Z
2020-11-13T12:30:26Z,42.805,6.029,13.3022,4.60063,2470.1,2020-11-13T14:31:23Z
2020-11-13T12:33:29Z,42.805,6.029,13.3021,4.60049,2470.1,2020-11-13T14:34:26Z
2020-11-13T12:36:33Z,42.805,6.029,13.2996,4.60044,2470.1,2020-11-13T14:37:29Z
2020-11-13T12:39:36Z,42.805,6.029,13.3000,4.60064,2470.124,2020-11-13T14:40:32Z
2020-11-13T12:42:39Z,42.805,6.029,13.3007,4.60086,2470.124,2020-11-13T14:43:35Z
2020-11-13T12:45:42Z,42.805,6.029,13.3006,4.60084,2470.147,2020-11-13T14:46:38Z
2020-11-13T12:48:45Z,42.805,6.029,13.2993,4.60047,2470.11,2020-11-13T14:49:41Z
2020-11-13T12:51:48Z,42.805,6.029,13.2988,4.60044,2470.1,2020-11-13T14:52:45Z
2020-11-13T12:54:51Z,42.805,6.029,13.2993,4.60029,2470.133,2020-11-13T14:55:48Z
2020-11-13T12:57:54Z,42.805,6.029,13.2998,4.60037,2470.156,2020-11-13T14:58:51Z
2020-11-13T13:00:58Z,42.805,6.029,13.2990,4.60059,2470.11,2020-11-13T15:01:54Z
2020-11-13T13:04:01Z,42.805,6.029,13.3007,4.60056,2470.147,2020-11-13T15:04:57Z
2020-11-13T13:07:04Z,42.805,6.029,13.3019,4.60052,2470.124,2020-11-13T15:08:00Z
2020-11-13T13:10:07Z,42.805,6.029,13.2998,4.60060,2470.11,2020-11-13T15:11:03Z
2020-11-13T13:13:10Z,42.805,6.029,13.3006,4.60039,2470.11,2020-11-13T15:14:06Z
2020-11-13T13:16:13Z,42.805,6.029,13.3008,4.60067,2470.124,2020-11-13T15:17:10Z
2020-11-13T13:19:16Z,42.805,6.029,13.3002,4.60103,2470.11,2020-11-13T15:20:13Z
2020-11-13T13:22:19Z,42.805,6.029,13.3002,4.60044,2470.133,2020-11-13T15:23:16Z
2020-11-13T13:25:23Z,42.805,6.029,13.2994,4.60087,2470.133,2020-11-13T15:26:19Z
2020-11-13T13:28:26Z,42.805,6.029,13.2995,4.60046,2470.124,2020-11-13T15:29:22Z
2020-11-13T13:31:29Z,42.805,6.029,13.3011,4.60045,2470.133,2020-11-13T15:32:25Z
2020-11-13T13:34:32Z,42.805,6.029,13.2996,4.60059,2470.156,2020-11-13T15:35:28Z
2020-11-13T13:37:35Z,42.805,6.029,13.2996,4.60024,2470.156,2020-11-13T15:38:31Z
2020-11-13T13:40:38Z,42.805,6.029,13.2996,4.60029,2470.156,2020-11-13T15:41:35Z
2020-11-13T13:43:41Z,42.805,6.029,13.2996,4.60068,2470.133,2020-11-13T15:44:38Z
2020-11-13T13:46:45Z,42.805,6.029,13.2990,4.60044,2470.133,2020-11-13T15:47:41Z
2020-11-13T13:49:48Z,42.805,6.029,13.3026,4.60071,2470.133,2020-11-13T15:50:44Z
2020-11-13T13:52:51Z,42.805,6.029,13.3002,4.60053,2470.147,2020-11-13T15:53:47Z
2020-11-13T13:55:54Z,42.805,6.029,13.2995,4.60033,2470.171,2020-11-13T15:56:50Z
2020-11-13T13:58:57Z,42.805,6.029,13.2998,4.60037,2470.171,2020-11-13T15:59:53Z
2020-11-13T14:02:00Z,42.805,6.029,13.3003,4.60064,2470.147,2020-11-13T16:02:56Z
2020-11-13T14:05:03Z,42.805,6.029,13.3012,4.60052,2470.133,2020-11-13T16:06:00Z
2020-11-13T14:08:06Z,42.805,6.029,13.2991,4.60052,2470.18,2020-11-13T16:09:03Z
2020-11-13T14:11:09Z,42.805,6.029,13.2990,4.60057,2470.133,2020-11-13T16:12:06Z
2020-11-13T14:14:13Z,42.805,6.029,13.3003,4.60026,2470.171,2020-11-13T16:15:09Z
2020-11-13T14:17:16Z,42.805,6.029,13.2998,4.60029,2470.156,2020-11-13T16:18:12Z
2020-11-13T14:20:19Z,42.805,6.029,13.2995,4.60026,2470.18,2020-11-13T16:21:15Z
2020-11-13T14:23:22Z,42.805,6.029,13.2992,4.60046,2470.18,2020-11-13T16:24:18Z
2020-11-13T14:26:25Z,42.805,6.029,13.2992,4.60045,2470.156,2020-11-13T16:27:21Z
2020-11-13T14:29:28Z,42.805,6.029,13.2999,4.60041,2470.18,2020-11-13T16:30:25Z
2020-11-13T14:32:31Z,42.805,6.029,13.3004,4.60057,2470.203,2020-11-13T16:33:28Z
2020-11-13T14:35:34Z,42.805,6.029,13.2997,4.60029,2470.18,2020-11-13T16:36:31Z
2020-11-13T14:38:38Z,42.805,6.029,13.2993,4.60034,2470.194,2020-11-13T16:39:34Z
2020-11-13T14:41:41Z,42.805,6.029,13.3003,4.60043,2470.203,2020-11-13T16:42:37Z
2020-11-13T14:44:44Z,42.805,6.029,13.2996,4.60052,2470.18,2020-11-13T16:45:40Z
2020-11-13T14:47:47Z,42.805,6.029,13.3006,4.60050,2470.24,2020-11-13T16:48:43Z
2020-11-13T14:50:50Z,42.805,6.029,13.2988,4.60045,2470.203,2020-11-13T16:51:47Z
2020-11-13T14:53:53Z,42.805,6.029,13.2994,4.60044,2470.189,2020-11-13T16:54:50Z
2020-11-13T14:56:56Z,42.805,6.029,13.2988,4.60029,2470.217,2020-11-13T16:57:53Z
2020-11-13T15:00:00Z,42.805,6.029,13.2996,4.60022,2470.24,2020-11-13T17:00:56Z
2020-11-13T15:03:03Z,42.805,6.029,13.2992,4.60031,2470.227,2020-11-13T17:03:59Z